Lander, WY

10:59 AM MDT on July 24, 2017 (GMT -0600)
Hunt

Weather History for KLND - February, 2014

Change the Weather History Date:

Tuesday, February 4, 2014

  Actual Average Record
Temperature  
Mean Temperature 2 °F 23 °F  
Max Temperature 11 °F 34 °F 59 °F (1967)
Min Temperature -8 °F 11 °F -35 °F (1899)
Degree Days  
Heating Degree Days 63 42  
Month to date heating degree days 215 171  
Since 1 July heating degree days 4731 4761  
Cooling Degree Days 0 0  
Month to date cooling degree days 0 0  
Year to date cooling degree days 0 0  
Moisture  
Dew Point -3 °F    
Average Humidity 82    
Maximum Humidity 95    
Minimum Humidity 69    
Precipitation  
Precipitation 0.05 in 0.01 in 0.55 in (1959)
Month to date precipitation 0.06 0.06  
Year to date precipitation 0.67 0.47  
Snow  
Snow 0.70 in 0.40 in - ()
Month to date snowfall 1.2 1.3  
Since 1 July snowfall 52.7 44.6  
Snow Depth 1.00 in    
Sea Level Pressure  
Sea Level Pressure 30.12 in    
Wind  
Wind Speed 7 mph (NNE)    
Max Wind Speed 14 mph    
Max Gust Speed 16 mph    
Visibility 3 miles    
Events Snow    
T = Trace of Precipitation, MM = Missing Value Source: NWS Daily Summary

Daily Weather History Graph

Daily Weather History Graph

Search for Another Location

Airport or City:

Trip Planner

Search our weather history database for the weather conditions in past years. The results will help you decide how hot, cold, wet, or windy it might be!

Date:

Astronomy

Feb. 04, 2014 Rise Set
Actual Time 7:26 AM MST 5:32 PM MST
Civil Twilight 6:56 AM MST 6:01 PM MST
Nautical Twilight 6:22 AM MST 6:35 PM MST
Astronomical Twilight 5:49 AM MST 7:08 PM MST
Moon 9:57 AM MST (2/4) 11:39 PM MST (2/4)
Length of Visible Light 11h 05m
Length of Day
10h 06m
Waxing Crescent, 29% of the Moon is Illuminated
Feb 4
Waxing Crescent
Feb 6
First Quarter
Feb 14
Full
Feb 22
Last Quarter
Mar 1
New

Hourly Weather History & Observations

Time (MST) Temp. Windchill Dew Point Humidity Pressure Visibility Wind Dir Wind Speed Gust Speed Precip Events Conditions
12:39 AM 9.0 °F -7.3 °F 5.0 °F 84% 29.84 in 2.0 mi North 13.8 mph - 0.00 in Snow Light Snow
12:46 AM 9.0 °F -5.9 °F 6.1 °F 88% 29.85 in 1.5 mi North 11.5 mph - 0.00 in Snow Light Snow
12:53 AM 9.0 °F -5.1 °F 5.0 °F 84% 30.02 in 1.2 mi NNW 10.4 mph - 0.00 in Snow Light Snow
1:20 AM 7.0 °F -8.3 °F 3.9 °F 87% 29.86 in 2.0 mi North 11.5 mph - 0.01 in Snow Light Snow
1:32 AM 7.0 °F -6.6 °F 3.9 °F 87% 29.86 in 1.8 mi North 9.2 mph - 0.01 in Snow Light Snow
1:41 AM 7.0 °F -6.6 °F 3.0 °F 84% 29.87 in 2.5 mi North 9.2 mph - 0.01 in Snow Light Snow
1:53 AM 7.0 °F -5.7 °F 3.0 °F 84% 30.05 in 2.0 mi North 8.1 mph - 0.01 in Snow Light Snow
2:07 AM 6.1 °F -9.5 °F 1.9 °F 83% 29.88 in 3.0 mi North 11.5 mph - 0.00 in Snow Light Snow
2:14 AM 6.1 °F -7.8 °F 1.9 °F 83% 29.88 in 2.5 mi North 9.2 mph - 0.00 in Snow Light Snow
2:45 AM 5.0 °F -8.1 °F 1.9 °F 87% 29.89 in 1.5 mi North 8.1 mph - 0.00 in Snow Light Snow
2:53 AM 5.0 °F -6.9 °F 1.9 °F 87% 30.08 in 1.2 mi North 6.9 mph - 0.00 in Snow Light Snow
3:17 AM 3.9 °F -5.3 °F 1.0 °F 88% 29.90 in 1.2 mi North 4.6 mph - 0.01 in Snow Light Snow
3:40 AM 3.9 °F -6.9 °F -0.0 °F 84% 29.90 in 2.0 mi North 5.8 mph - 0.01 in Snow Light Snow
3:53 AM 3.0 °F -8.0 °F -0.0 °F 87% 30.10 in 1.5 mi North 5.8 mph - 0.01 in Snow Light Snow
4:16 AM 3.0 °F -9.3 °F -0.9 °F 84% 29.91 in 2.5 mi North 6.9 mph - 0.00 in Snow Light Snow
4:30 AM 3.0 °F -9.3 °F -0.9 °F 84% 29.92 in 1.5 mi North 6.9 mph - 0.01 in Snow Light Snow
4:53 AM 1.9 °F -11.8 °F -0.9 °F 88% 30.13 in 2.0 mi North 8.1 mph - 0.01 in Snow Light Snow
5:53 AM 1.9 °F -11.8 °F -2.0 °F 83% 30.16 in 2.0 mi NNW 8.1 mph - 0.00 in Snow Light Snow
6:53 AM 1.0 °F -10.3 °F -2.9 °F 83% 30.19 in 3.0 mi North 5.8 mph - 0.00 in Snow Light Snow
7:04 AM 1.0 °F -12.9 °F -2.9 °F 83% 29.96 in 2.0 mi North 8.1 mph - 0.00 in Snow Light Snow
7:13 AM 1.0 °F -14.0 °F -2.9 °F 83% 29.97 in 1.8 mi NNE 9.2 mph - 0.00 in Snow Light Snow
7:34 AM 1.0 °F -12.9 °F -2.9 °F 83% 29.98 in 1.2 mi North 8.1 mph - 0.00 in Snow Light Snow
7:53 AM -0.0 °F -16.3 °F -5.1 °F 79% 30.23 in 1.8 mi North 10.4 mph - 0.00 in Snow Light Snow
8:25 AM -0.0 °F -11.6 °F -4.0 °F 83% 30.01 in 0.8 mi North 5.8 mph - 0.01 in Snow Light Snow
8:35 AM -0.0 °F -9.9 °F -4.0 °F 83% 30.01 in 1.5 mi North 4.6 mph - 0.01 in Snow Light Snow
8:49 AM -0.4 °F -10.4 °F -4.0 °F 85% 30.02 in 2.0 mi NNW 4.6 mph - 0.01 in   Overcast
8:53 AM 1.0 °F -6.7 °F -4.0 °F 79% 30.27 in 2.0 mi NNW 3.5 mph - 0.01 in   Haze
9:05 AM 1.0 °F -8.7 °F -4.0 °F 79% 30.02 in 1.2 mi WNW 4.6 mph - 0.00 in Snow Light Snow
9:12 AM 1.0 °F -6.7 °F -4.0 °F 79% 30.03 in 0.8 mi NW 3.5 mph - 0.00 in Snow Light Snow
9:49 AM 1.4 °F -11.3 °F -4.0 °F 78% 30.04 in 1.0 mi NNE 6.9 mph - 0.01 in Snow Light Snow
9:53 AM 1.0 °F -10.3 °F -4.0 °F 79% 30.30 in 1.0 mi NNE 5.8 mph - 0.01 in Snow Light Snow
10:38 AM 1.9 °F -10.6 °F -4.0 °F 76% 30.05 in 2.5 mi NNE 6.9 mph - 0.00 in Snow Light Snow
10:46 AM 1.9 °F -9.2 °F -4.0 °F 76% 30.05 in 4.0 mi NE 5.8 mph - 0.00 in   Haze
10:53 AM 1.9 °F -10.6 °F -4.0 °F 76% 30.31 in 4.0 mi NNE 6.9 mph - 0.00 in   Haze
11:53 AM 5.0 °F - -4.0 °F 66% 30.31 in 10.0 mi Calm Calm - N/A   Scattered Clouds
12:51 PM 3.2 °F -6.2 °F -2.2 °F 78% 30.05 in 2.5 mi East 4.6 mph - N/A   Haze
12:53 PM 3.9 °F -6.9 °F -2.9 °F 73% 30.31 in 2.5 mi East 5.8 mph - N/A   Haze
1:17 PM 3.9 °F -6.9 °F -2.9 °F 73% 30.05 in 4.0 mi East 5.8 mph - N/A   Haze
1:30 PM 3.0 °F -11.5 °F -4.0 °F 73% 30.04 in 4.0 mi East 9.2 mph - N/A   Haze
1:53 PM 3.9 °F -9.4 °F -4.0 °F 70% 30.32 in 4.0 mi ESE 8.1 mph - N/A   Haze
2:06 PM 3.9 °F -9.4 °F -4.0 °F 70% 30.04 in 2.5 mi East 8.1 mph - 0.00 in Snow Light Snow
2:27 PM 3.0 °F -10.5 °F -4.0 °F 73% 30.05 in 1.8 mi East 8.1 mph - 0.00 in Snow Light Snow
2:44 PM 3.0 °F -10.5 °F -2.9 °F 76% 30.05 in 2.5 mi East 8.1 mph - 0.00 in   Haze
2:53 PM 3.0 °F -9.3 °F -4.0 °F 73% 30.35 in 3.0 mi East 6.9 mph - 0.00 in   Haze
3:53 PM 1.9 °F -11.8 °F -5.1 °F 72% 30.38 in 4.0 mi East 8.1 mph - N/A   Haze
4:53 PM -0.0 °F -14.2 °F -6.0 °F 76% 30.42 in 5.0 mi East 8.1 mph - N/A   Haze
5:53 PM -0.9 °F -11.0 °F -7.1 °F 75% 30.44 in 9.0 mi ESE 4.6 mph - N/A   Overcast
6:53 PM -2.9 °F - -8.0 °F 79% 30.49 in 4.0 mi North - - N/A   Haze
7:53 PM -5.1 °F -15.8 °F -9.0 °F 83% 30.51 in 8.0 mi North 4.6 mph - N/A   Overcast
8:53 PM -6.0 °F -18.6 °F -9.9 °F 83% 30.52 in 10.0 mi NNW 5.8 mph - N/A   Overcast
9:34 PM -7.1 °F -19.9 °F -11.9 °F 79% 30.18 in 10.0 mi NW 5.8 mph - N/A   Overcast
9:53 PM -7.1 °F -21.4 °F -11.9 °F 79% 30.55 in 10.0 mi WNW 6.9 mph - N/A   Overcast
10:53 PM -7.1 °F -21.4 °F -11.9 °F 79% 30.55 in 7.0 mi NW 6.9 mph - N/A   Overcast
11:53 PM -7.1 °F -23.9 °F -11.0 °F 83% 30.55 in 6.0 mi NW 9.2 mph - N/A   Overcast